Flag for Brazil Weather past 2 weeks in Cuiabá, Mato Grosso, Brazil

Now
73 °F

Clear.


Feels Like: 76 °F
Forecast: 72 / 100 °F
Wind: 2 mph from North

Location: Cuiaba Aeroporto

Current Time: Aug 23, 2014 at 2:14:07 AM

Latest Report: Aug 23, 2014 at 2:00 AM


Visibility: 10 mi

Pressure: 29.86 "Hg

Humidity: 69%

Dew point: 63 °F

Location of CuiabáLocation

Historic Weather in Cuiabá — Graph

°F

Cuiabá temperature yesterday

Maximum temperature yesterday: 102 °F (at 2:00 PM)
Minimum temperature yesterday: 73 °F (at 5:00 AM)
Average temperature yesterday: 87 °F

Past Weeks' High & Low Weather Summary

 TemperatureHumidityPressure
High102 °F (Aug 22, 2:00 PM)100% (Aug 15, 5:00 AM)30.18 "Hg (Aug 15, 5:00 AM)
Low61 °F (Aug 14, 8:00 AM)16% (Aug 22, 2:00 PM)29.83 "Hg (Aug 8, 11:00 PM)
Average80 °F56%29.99 "Hg
* Reported Aug 8 1:00 AM — Aug 23 1:00 AM, Cuiabá, Weather by CustomWeather, © 2014

Note: Actual official high and low records may vary slightly from our data, if they occured in-between our weather recording intervals... More about our weather records

Advertising

Cuiabá weather history for previous 24 hours

 ConditionsComfort  
Time TempWeatherWind HumidityBarometerVisibility
1:00 AM
Aug 23
75 °FClear.5 mph69%29.86 "Hg10 mi
12:00 AM79 °FClear.3 mph54%29.89 "Hg10 mi
11:00 PM
Aug 22
82 °FClear.6 mph42%29.89 "Hg10 mi
10:00 PM82 °FClear.8 mph40%29.89 "Hg10 mi
9:00 PM82 °FClear.3 mph37%29.86 "Hg10 mi
8:00 PM82 °FClear.No wind35%29.86 "Hg10 mi
7:00 PM88 °FClear.2 mph31%29.83 "Hg10 mi
6:00 PM90 °FClear.1 mph29%29.83 "Hg10 mi
5:00 PM95 °FSunny.2 mph22%29.83 "Hg10 mi
4:00 PM99 °FSunny.7 mph18%29.83 "Hg10 mi
3:00 PM100 °FPassing clouds.5 mph17%29.83 "HgN/A
2:00 PM102 °FPassing clouds.6 mph16%29.86 "HgN/A
1:00 PM99 °FSunny.7 mph21%29.89 "Hg10 mi
12:00 PM99 °FSunny.14 mph19%29.92 "Hg10 mi
11:00 AM99 °FSunny.14 mph19%29.95 "Hg10 mi
10:00 AM93 °FSunny.3 mph30%29.98 "Hg10 mi
9:00 AM90 °FSunny.9 mph41%29.98 "Hg10 mi
8:00 AM86 °FSunny.7 mph38%29.98 "Hg10 mi
7:00 AM81 °FSunny.3 mph58%29.95 "Hg10 mi
6:00 AM73 °FSunny.No wind65%29.92 "Hg10 mi
5:00 AM73 °FClear.No wind65%29.92 "Hg10 mi
4:00 AM75 °FClear.2 mph61%29.89 "Hg10 mi
3:00 AM75 °FClear.1 mph61%29.92 "Hg10 mi
2:00 AM77 °FClear.No wind61%29.92 "Hg10 mi
Weather by CustomWeather, © 2014

See weather overviewHow to use our weather pages